Date/Time,Expocode,Longitude,Latitude,Depth,version,QC_Flag,P_sal,Temp,Temperature of Equilibration,Atmospheric Pressure,Equilibrator Pressure (absolute),WOA_SSS,NCEP_SLP,ETOPO2_depth,dist_to_land,GVCO2,CO2 Mole Fraction,xCO2water_SST_dry,pCO2 In Water - Equilibrator Temperature,pCO2,fCO2water_equ_wet,fCO2water_SST_wet,fCO2,fCO2rec_src,fCO2  QC Flag,pCO2  QC Flag,P_sal  QC Flag,Temp  QC Flag
2020-04-08T19:08:46.000Z,26NA20200407,-52.336,64.086,,2021.0N,2,,0.656,1.02,1016.64,1019.6,33.509,1019.0,93.0,28.0,,374.2,,,368.4,,366.8,366.785,4,2,9,9,9
2020-04-08T19:10:19.000Z,26NA20200407,-52.325,64.081,,2021.0N,2,,0.657,1.01,1016.52,1019.7,33.509,1019.0,91.0,28.0,,374.4,,,368.8,,367.2,367.183,4,2,9,9,9
2020-04-08T19:11:53.000Z,26NA20200407,-52.316,64.078,,2021.0N,2,,0.646,1.01,1016.5,1019.7,33.509,1019.0,90.0,28.0,,374.6,,,368.8,,367.2,367.183,4,2,9,9,9
2020-04-08T19:13:26.000Z,26NA20200407,-52.3,64.071,,2021.0N,2,,0.643,1.02,1016.56,1019.5,33.509,1019.0,88.0,27.0,,374.6,,,368.6,,367.0,366.984,4,2,9,9,9
2020-04-08T19:14:59.000Z,26NA20200407,-52.291,64.067,,2021.0N,2,,0.649,1.02,1016.52,1019.4,33.509,1019.0,87.0,27.0,,374.7,,,368.8,,367.2,367.183,4,2,9,9,9
2020-04-08T19:16:32.000Z,26NA20200407,-52.283,64.064,,2021.0N,2,,0.661,1.01,1016.18,1019.3,33.509,1019.0,86.0,27.0,,375.0,,,369.3,,367.7,367.681,4,2,9,9,9
2020-04-08T19:18:05.000Z,26NA20200407,-52.266,64.062,,2021.0N,2,,0.66,1.02,1015.92,1019.2,33.509,1019.0,84.0,26.0,,375.3,,,369.5,,367.9,367.881,4,2,9,9,9
2020-04-08T19:19:38.000Z,26NA20200407,-52.251,64.062,,2021.0N,2,,0.655,1.02,1015.92,1019.3,33.509,1019.0,82.0,25.0,,375.7,,,369.8,,368.2,368.179,4,2,9,9,9
2020-04-08T19:21:11.000Z,26NA20200407,-52.235,64.061,,2021.0N,2,,0.652,1.02,1015.95,1019.3,33.509,1019.0,79.0,25.0,,375.8,,,369.8,,368.2,368.179,4,2,9,9,9
2020-04-08T19:22:44.000Z,26NA20200407,-52.216,64.059,,2021.0N,2,,0.66,1.01,1015.91,1019.1,33.509,1019.0,77.0,24.0,,375.9,,,370.2,,368.6,368.578,4,2,9,9,9
2020-04-08T19:24:17.000Z,26NA20200407,-52.204,64.058,,2021.0N,2,,0.656,1.02,1015.86,1019.1,33.509,1019.0,77.0,23.0,,376.0,,,370.0,,368.4,368.379,4,2,9,9,9
2020-04-08T19:25:50.000Z,26NA20200407,-52.189,64.058,,2021.0N,2,,0.541,1.01,1015.85,1019.1,33.509,1019.0,78.0,23.0,,375.7,,,368.1,,366.5,366.484,4,2,9,9,9
2020-04-08T19:27:23.000Z,26NA20200407,-52.169,64.057,,2021.0N,2,,0.553,0.9,1015.71,1019.1,33.509,1019.0,81.0,22.0,,374.9,,,369.3,,367.7,367.679,4,2,9,9,9
2020-04-08T19:28:56.000Z,26NA20200407,-52.161,64.057,,2021.0N,2,,0.56,0.88,1015.95,1019.1,33.509,1019.0,82.0,21.0,,373.8,,,368.5,,366.9,366.883,4,2,9,9,9
2020-04-08T19:30:30.000Z,26NA20200407,-52.137,64.061,,2021.0N,2,,0.547,0.91,1015.63,1018.9,33.509,1019.0,89.0,20.0,,372.9,,,366.9,,365.3,365.29,4,2,9,9,9
2020-04-08T19:32:03.000Z,26NA20200407,-52.12,64.065,,2021.0N,2,,0.637,0.97,1015.84,1018.8,33.509,1019.0,94.0,19.0,,372.3,,,366.8,,365.2,365.193,4,2,9,9,9
2020-04-08T19:33:36.000Z,26NA20200407,-52.113,64.067,,2021.0N,2,,0.653,1.0,1015.84,1018.7,33.509,1019.0,98.0,18.0,,373.0,,,367.2,,365.6,365.591,4,2,9,9,9
2020-04-08T19:35:09.000Z,26NA20200407,-52.098,64.071,,2021.0N,2,,0.658,1.02,1015.66,1018.8,33.509,1019.0,108.0,18.0,,374.2,,,368.2,,366.6,366.587,4,2,9,9,9
2020-04-08T19:36:43.000Z,26NA20200407,-52.074,64.076,,2021.0N,2,,0.668,1.02,1015.87,1018.8,33.509,1019.0,139.0,16.0,,375.2,,,369.4,,367.8,367.782,4,2,9,9,9
2020-04-08T19:38:16.000Z,26NA20200407,-52.065,64.079,,2021.0N,2,,0.678,1.03,1015.63,1018.8,33.509,1019.0,162.0,16.0,,375.9,,,370.0,,368.4,368.38,4,2,9,9,9
2020-04-08T19:39:49.000Z,26NA20200407,-52.055,64.081,,2021.0N,2,,0.68,1.04,1015.96,1019.0,33.509,1019.0,188.0,15.0,,376.9,,,371.0,,369.4,369.375,4,2,9,9,9
2020-04-08T19:41:23.000Z,26NA20200407,-52.039,64.085,,2021.0N,2,,0.682,1.04,1015.65,1018.8,33.509,1019.0,230.0,14.0,,378.1,,,372.0,,370.4,370.371,4,2,9,9,9
2020-04-08T19:42:55.000Z,26NA20200407,-52.028,64.088,,2021.0N,2,,0.69,1.04,1015.54,1018.8,33.509,1019.0,249.0,13.0,,378.8,,,372.9,,371.3,371.267,4,2,9,9,9
2020-04-08T19:44:49.000Z,26NA20200407,-51.998,64.095,,2021.0N,2,,0.695,1.06,1015.58,1018.8,35.0,1019.0,239.0,11.0,,379.7,,,373.6,,371.9,371.964,4,2,9,9,9
2020-04-08T19:46:22.000Z,26NA20200407,-51.993,64.096,,2021.0N,2,,0.686,1.05,1015.61,1018.8,35.0,1019.0,234.0,11.0,,380.3,,,374.2,,372.6,372.561,4,2,9,9,9
2020-04-08T19:47:55.000Z,26NA20200407,-51.975,64.101,,2021.0N,2,,0.668,1.04,1015.64,1018.8,35.0,1019.0,199.0,10.0,,380.7,,,374.4,,372.8,372.76,4,2,9,9,9
2020-04-08T19:49:28.000Z,26NA20200407,-51.954,64.106,,2021.0N,2,,0.666,1.03,1015.55,1018.7,35.0,1019.0,140.0,9.0,,380.5,,,374.3,,372.7,372.661,4,2,9,9,9
2020-04-08T19:51:01.000Z,26NA20200407,-51.954,64.106,,2021.0N,2,,0.691,1.02,1015.57,1018.8,35.0,1019.0,140.0,9.0,,380.1,,,374.5,,372.9,372.86,4,2,9,9,9
2020-04-08T19:52:34.000Z,26NA20200407,-51.932,64.111,,2021.0N,2,,0.679,1.05,1015.52,1018.6,35.0,1019.0,88.0,7.0,,380.4,,,374.0,,372.4,372.362,4,2,9,9,9
2020-04-08T19:54:07.000Z,26NA20200407,-51.928,64.112,,2021.0N,2,,0.662,1.03,1015.56,1018.7,35.0,1019.0,82.0,7.0,,380.7,,,374.4,,372.8,372.76,4,2,9,9,9
2020-04-08T19:55:40.000Z,26NA20200407,-51.928,64.112,,2021.0N,2,,0.667,1.02,1015.56,1018.6,35.0,1019.0,82.0,7.0,,380.3,,,374.3,,372.6,372.661,4,2,9,9,9
2020-04-08T19:57:13.000Z,26NA20200407,-51.883,64.124,,2021.0N,2,,0.715,1.06,1015.52,1018.6,35.0,1019.0,29.0,5.0,,380.3,,,374.4,,372.8,372.761,4,2,9,9,9
2020-04-08T19:58:46.000Z,26NA20200407,-51.88,64.124,,2021.0N,2,,0.694,1.07,1015.43,1018.6,35.0,1019.0,28.0,4.0,,381.4,,,374.9,,373.3,373.259,4,2,9,9,9
2020-04-08T20:00:19.000Z,26NA20200407,-51.866,64.128,,2021.0N,2,,0.687,1.06,1015.36,1018.6,35.0,1019.0,19.0,3.0,,382.1,,,375.7,,374.1,374.055,4,2,9,9,9
2020-04-08T21:25:37.000Z,26NA20200407,-51.716,64.168,,2021.0N,2,,0.298,0.64,1014.85,1018.4,35.0,1019.0,-8.0,0.0,,370.7,,,365.0,,363.4,363.394,4,2,9,9,9
2020-04-08T21:27:10.000Z,26NA20200407,-51.716,64.168,,2021.0N,2,,0.301,0.65,1015.02,1018.5,35.0,1019.0,-8.0,0.0,,369.9,,,364.1,,362.5,362.498,4,2,9,9,9
2020-04-08T21:28:43.000Z,26NA20200407,-51.716,64.168,,2021.0N,2,,0.291,0.65,1014.99,1018.3,35.0,1019.0,-8.0,0.0,,369.4,,,363.4,,361.8,361.801,4,2,9,9,9
2020-04-08T21:30:16.000Z,26NA20200407,-51.716,64.168,,2021.0N,2,,0.313,0.67,1014.81,1018.5,35.0,1019.0,-8.0,0.0,,369.1,,,363.2,,361.6,361.602,4,2,9,9,9
2020-04-08T21:31:49.000Z,26NA20200407,-51.716,64.168,,2021.0N,2,,0.298,0.65,1014.89,1018.2,35.0,1019.0,-8.0,0.0,,368.9,,,363.0,,361.4,361.403,4,2,9,9,9
2020-04-08T21:33:22.000Z,26NA20200407,-51.716,64.168,,2021.0N,2,,0.322,0.65,1014.84,1018.2,35.0,1019.0,-8.0,0.0,,368.9,,,363.3,,361.8,361.702,4,2,9,9,9
2020-04-08T21:34:55.000Z,26NA20200407,-51.716,64.168,,2021.0N,2,,0.306,0.65,1014.63,1018.4,35.0,1019.0,-8.0,0.0,,368.8,,,363.1,,361.5,361.502,4,2,9,9,9
2020-04-08T21:36:28.000Z,26NA20200407,-51.716,64.168,,2021.0N,2,,0.323,0.67,1014.74,1018.4,35.0,1019.0,-8.0,0.0,,368.8,,,363.0,,361.5,361.403,4,2,9,9,9
2020-04-08T21:38:01.000Z,26NA20200407,-51.716,64.168,,2021.0N,2,,0.356,0.69,1014.62,1018.4,35.0,1019.0,-8.0,0.0,,368.6,,,363.0,,361.4,361.404,4,2,9,9,9
2020-04-08T21:39:34.000Z,26NA20200407,-51.716,64.168,,2021.0N,2,,0.311,0.69,1014.39,1018.3,35.0,1019.0,-8.0,0.0,,368.6,,,362.3,,360.7,360.706,4,2,9,9,9
2020-04-08T21:41:08.000Z,26NA20200407,-51.716,64.168,,2021.0N,2,,0.317,0.66,1014.67,1018.2,35.0,1019.0,-8.0,0.0,,368.6,,,362.8,,361.2,361.204,4,2,9,9,9
2020-04-08T21:42:41.000Z,26NA20200407,-51.716,64.168,,2021.0N,2,,0.332,0.67,1014.79,1018.2,35.0,1019.0,-8.0,0.0,,368.6,,,362.9,,361.3,361.304,4,2,9,9,9
2020-04-08T21:44:34.000Z,26NA20200407,-51.716,64.168,,2021.0N,2,,0.33,0.69,1014.85,1018.2,35.0,1019.0,-8.0,0.0,,368.6,,,362.6,,361.0,361.005,4,2,9,9,9
2020-04-08T21:46:07.000Z,26NA20200407,-51.716,64.168,,2021.0N,2,,0.318,0.67,1014.72,1018.3,35.0,1019.0,-8.0,0.0,,368.5,,,362.6,,361.0,361.005,4,2,9,9,9
2020-04-08T21:47:40.000Z,26NA20200407,-51.716,64.168,,2021.0N,2,,0.307,0.65,1014.78,1018.3,35.0,1019.0,-8.0,0.0,,368.6,,,362.9,,361.3,361.304,4,2,9,9,9
2020-04-08T21:49:13.000Z,26NA20200407,-51.716,64.168,,2021.0N,2,,0.326,0.67,1014.69,1018.3,35.0,1019.0,-8.0,0.0,,368.8,,,363.0,,361.4,361.403,4,2,9,9,9
2020-04-08T21:50:47.000Z,26NA20200407,-51.716,64.168,,2021.0N,2,,0.342,0.67,1014.6,1018.3,35.0,1019.0,-8.0,0.0,,368.9,,,363.4,,361.8,361.802,4,2,9,9,9
2020-04-08T21:52:20.000Z,26NA20200407,-51.716,64.168,,2021.0N,2,,0.37,0.7,1014.59,1018.3,35.0,1019.0,-8.0,0.0,,369.1,,,363.5,,361.9,361.902,4,2,9,9,9
2020-04-08T21:53:53.000Z,26NA20200407,-51.716,64.168,,2021.0N,2,,0.372,0.69,1014.51,1018.4,35.0,1019.0,-8.0,0.0,,369.1,,,363.8,,362.2,362.201,4,2,9,9,9
2020-04-08T21:55:26.000Z,26NA20200407,-51.716,64.168,,2021.0N,2,,0.394,0.71,1014.52,1018.2,35.0,1019.0,-8.0,0.0,,369.2,,,363.8,,362.3,362.202,4,2,9,9,9
2020-04-08T21:56:59.000Z,26NA20200407,-51.716,64.168,,2021.0N,2,,0.394,0.74,1014.41,1018.2,35.0,1019.0,-8.0,0.0,,369.4,,,363.5,,361.9,361.903,4,2,9,9,9
2020-04-08T21:58:32.000Z,26NA20200407,-51.716,64.168,,2021.0N,2,,0.411,0.73,1014.54,1018.2,35.0,1019.0,-8.0,0.0,,369.6,,,364.1,,362.5,362.501,4,2,9,9,9
2020-04-08T22:00:05.000Z,26NA20200407,-51.716,64.168,,2021.0N,2,,0.4,0.74,1014.39,1018.2,35.0,1019.0,-8.0,0.0,,369.7,,,363.9,,362.3,362.301,4,2,9,9,9
2020-04-08T22:01:38.000Z,26NA20200407,-51.716,64.168,,2021.0N,2,,0.406,0.75,1014.54,1018.1,35.0,1019.0,-8.0,0.0,,369.9,,,364.0,,362.4,362.401,4,2,9,9,9
2020-04-08T22:03:11.000Z,26NA20200407,-51.716,64.168,,2021.0N,2,,0.434,0.75,1014.31,1018.2,35.0,1019.0,-8.0,0.0,,370.0,,,364.6,,363.0,362.999,4,2,9,9,9
2020-04-08T22:04:44.000Z,26NA20200407,-51.716,64.168,,2021.0N,2,,0.421,0.76,1014.62,1018.3,35.0,1019.0,-8.0,0.0,,370.2,,,364.4,,362.8,362.799,4,2,9,9,9
2020-04-08T22:06:17.000Z,26NA20200407,-51.716,64.168,,2021.0N,2,,0.417,0.76,1014.21,1018.4,35.0,1019.0,-8.0,0.0,,370.1,,,364.4,,362.8,362.799,4,2,9,9,9
2020-04-08T22:07:50.000Z,26NA20200407,-51.716,64.168,,2021.0N,2,,0.409,0.76,1014.37,1018.3,35.0,1019.0,-8.0,0.0,,370.2,,,364.2,,362.7,362.6,4,2,9,9,9
2020-04-08T22:09:24.000Z,26NA20200407,-51.716,64.168,,2021.0N,2,,0.421,0.75,1014.45,1018.4,35.0,1019.0,-8.0,0.0,,370.2,,,364.6,,363.0,362.998,4,2,9,9,9
2020-04-08T22:10:57.000Z,26NA20200407,-51.716,64.168,,2021.0N,2,,0.4,0.75,1014.39,1018.4,35.0,1019.0,-8.0,0.0,,370.3,,,364.4,,362.8,362.799,4,2,9,9,9
2020-04-08T22:12:30.000Z,26NA20200407,-51.716,64.168,,2021.0N,2,,0.39,0.74,1014.52,1018.3,35.0,1019.0,-8.0,0.0,,370.3,,,364.4,,362.8,362.799,4,2,9,9,9
2020-04-08T22:14:03.000Z,26NA20200407,-51.716,64.168,,2021.0N,2,,0.395,0.72,1014.35,1018.2,35.0,1019.0,-8.0,0.0,,370.3,,,364.7,,363.1,363.098,4,2,9,9,9
2020-04-08T22:15:36.000Z,26NA20200407,-51.716,64.168,,2021.0N,2,,0.383,0.72,1014.11,1018.4,35.0,1019.0,-8.0,0.0,,370.4,,,364.7,,363.1,363.097,4,2,9,9,9
2020-04-08T22:17:09.000Z,26NA20200407,-51.716,64.168,,2021.0N,2,,0.388,0.72,1014.52,1018.2,35.0,1019.0,-8.0,0.0,,370.4,,,364.8,,363.2,363.197,4,2,9,9,9
2020-04-08T22:18:42.000Z,26NA20200407,-51.716,64.168,,2021.0N,2,,0.411,0.74,1014.54,1018.2,35.0,1019.0,-8.0,0.0,,370.4,,,364.8,,363.3,363.198,4,2,9,9,9
2020-04-08T22:20:15.000Z,26NA20200407,-51.716,64.168,,2021.0N,2,,0.45,0.77,1014.61,1018.2,35.0,1019.0,-8.0,0.0,,370.5,,,365.1,,363.5,363.497,4,2,9,9,9
2020-04-08T22:21:48.000Z,26NA20200407,-51.716,64.168,,2021.0N,2,,0.429,0.77,1014.42,1018.3,35.0,1019.0,-8.0,0.0,,370.6,,,364.9,,363.3,363.297,4,2,9,9,9
2020-04-08T22:23:21.000Z,26NA20200407,-51.716,64.168,,2021.0N,2,,0.403,0.76,1014.57,1018.3,35.0,1019.0,-8.0,0.0,,370.8,,,364.8,,363.2,363.197,4,2,9,9,9
2020-04-08T22:24:54.000Z,26NA20200407,-51.716,64.168,,2021.0N,2,,0.377,0.71,1014.44,1018.2,35.0,1019.0,-8.0,0.0,,370.9,,,365.3,,363.7,363.695,4,2,9,9,9
2020-04-08T22:26:27.000Z,26NA20200407,-51.716,64.168,,2021.0N,2,,0.383,0.71,1014.64,1018.1,35.0,1019.0,-8.0,0.0,,370.9,,,365.3,,363.7,363.695,4,2,9,9,9
2020-04-08T22:28:00.000Z,26NA20200407,-51.716,64.168,,2021.0N,2,,0.385,0.72,1014.66,1018.2,35.0,1019.0,-8.0,0.0,,371.0,,,365.3,,363.7,363.695,4,2,9,9,9
2020-04-08T22:29:33.000Z,26NA20200407,-51.716,64.168,,2021.0N,2,,0.356,0.72,1014.61,1018.1,35.0,1019.0,-8.0,0.0,,370.9,,,364.7,,363.1,363.097,4,2,9,9,9
2020-04-08T22:31:06.000Z,26NA20200407,-51.716,64.168,,2021.0N,2,,0.372,0.69,1014.5,1018.1,35.0,1019.0,-8.0,0.0,,370.8,,,365.3,,363.8,363.695,4,2,9,9,9
2020-04-08T22:32:39.000Z,26NA20200407,-51.716,64.168,,2021.0N,2,,0.366,0.7,1014.52,1018.1,35.0,1019.0,-8.0,0.0,,370.7,,,365.0,,363.4,363.396,4,2,9,9,9
2020-04-08T22:34:12.000Z,26NA20200407,-51.716,64.168,,2021.0N,2,,0.382,0.7,1014.41,1018.2,35.0,1019.0,-8.0,0.0,,370.6,,,365.2,,363.6,363.595,4,2,9,9,9
2020-04-08T22:35:46.000Z,26NA20200407,-51.716,64.168,,2021.0N,2,,0.397,0.72,1014.31,1018.2,35.0,1019.0,-8.0,0.0,,370.6,,,365.0,,363.4,363.396,4,2,9,9,9
2020-04-08T22:37:19.000Z,26NA20200407,-51.716,64.168,,2021.0N,2,,0.392,0.73,1014.5,1018.1,35.0,1019.0,-8.0,0.0,,370.6,,,364.8,,363.2,363.197,4,2,9,9,9
2020-04-08T22:38:52.000Z,26NA20200407,-51.716,64.168,,2021.0N,2,,0.358,0.7,1014.28,1018.1,35.0,1019.0,-8.0,0.0,,370.6,,,364.8,,363.2,363.197,4,2,9,9,9
2020-04-08T22:40:25.000Z,26NA20200407,-51.716,64.168,,2021.0N,2,,0.361,0.69,1014.44,1018.0,35.0,1019.0,-8.0,0.0,,370.7,,,365.1,,363.5,363.495,4,2,9,9,9
2020-04-08T22:41:58.000Z,26NA20200407,-51.716,64.168,,2021.0N,2,,0.359,0.67,1014.28,1018.0,35.0,1019.0,-8.0,0.0,,370.7,,,365.3,,363.7,363.695,4,2,9,9,9
2020-04-08T22:43:31.000Z,26NA20200407,-51.716,64.168,,2021.0N,2,,0.378,0.7,1014.37,1018.1,35.0,1019.0,-8.0,0.0,,370.7,,,365.1,,363.6,363.496,4,2,9,9,9
2020-04-08T22:45:24.000Z,26NA20200407,-51.716,64.168,,2021.0N,2,,0.384,0.73,1014.34,1018.2,35.0,1019.0,-8.0,0.0,,370.7,,,364.8,,363.2,363.197,4,2,9,9,9
2020-04-08T22:46:57.000Z,26NA20200407,-51.716,64.168,,2021.0N,2,,0.398,0.71,1014.51,1018.0,35.0,1019.0,-8.0,0.0,,370.8,,,365.4,,363.8,363.795,4,2,9,9,9
2020-04-08T22:48:30.000Z,26NA20200407,-51.716,64.168,,2021.0N,2,,0.395,0.71,1014.46,1017.9,35.0,1019.0,-8.0,0.0,,370.8,,,365.3,,363.7,363.695,4,2,9,9,9
2020-04-08T22:50:03.000Z,26NA20200407,-51.716,64.168,,2021.0N,2,,0.385,0.71,1014.35,1017.9,35.0,1019.0,-8.0,0.0,,370.9,,,365.2,,363.6,363.596,4,2,9,9,9
2020-04-08T22:51:37.000Z,26NA20200407,-51.716,64.168,,2021.0N,2,,0.393,0.73,1014.5,1017.9,35.0,1019.0,-8.0,0.0,,371.1,,,365.2,,363.6,363.596,4,2,9,9,9
2020-04-08T22:53:10.000Z,26NA20200407,-51.716,64.168,,2021.0N,2,,0.392,0.73,1014.41,1017.9,35.0,1019.0,-8.0,0.0,,371.2,,,365.3,,363.7,363.695,4,2,9,9,9
2020-04-08T22:54:43.000Z,26NA20200407,-51.716,64.168,,2021.0N,2,,0.39,0.71,1014.44,1017.9,35.0,1019.0,-8.0,0.0,,371.3,,,365.7,,364.1,364.094,4,2,9,9,9
2020-04-08T22:56:16.000Z,26NA20200407,-51.716,64.168,,2021.0N,2,,0.376,0.71,1014.35,1017.9,35.0,1019.0,-8.0,0.0,,371.3,,,365.5,,363.9,363.894,4,2,9,9,9
2020-04-08T22:57:49.000Z,26NA20200407,-51.716,64.168,,2021.0N,2,,0.406,0.71,1014.35,1018.0,35.0,1019.0,-8.0,0.0,,371.4,,,366.1,,364.5,364.492,4,2,9,9,9
2020-04-08T22:59:22.000Z,26NA20200407,-51.716,64.168,,2021.0N,2,,0.419,0.74,1014.15,1018.1,35.0,1019.0,-8.0,0.0,,371.4,,,365.9,,364.3,364.293,4,2,9,9,9
2020-04-08T23:00:55.000Z,26NA20200407,-51.716,64.168,,2021.0N,2,,0.407,0.74,1014.29,1018.1,35.0,1019.0,-8.0,0.0,,371.8,,,366.1,,364.5,364.492,4,2,9,9,9
2020-04-08T23:02:28.000Z,26NA20200407,-51.716,64.168,,2021.0N,2,,0.405,0.72,1014.22,1017.9,35.0,1019.0,-8.0,0.0,,372.0,,,366.5,,364.9,364.89,4,2,9,9,9
2020-04-08T23:04:01.000Z,26NA20200407,-51.716,64.168,,2021.0N,2,,0.386,0.72,1014.1,1018.0,35.0,1019.0,-8.0,0.0,,372.1,,,366.3,,364.7,364.691,4,2,9,9,9
2020-04-08T23:05:34.000Z,26NA20200407,-51.716,64.168,,2021.0N,2,,0.378,0.7,1014.0,1018.1,35.0,1019.0,-8.0,0.0,,372.0,,,366.5,,364.9,364.89,4,2,9,9,9
2020-04-08T23:07:07.000Z,26NA20200407,-51.716,64.168,,2021.0N,2,,0.383,0.7,1014.21,1018.0,35.0,1019.0,-8.0,0.0,,371.9,,,366.4,,364.8,364.79,4,2,9,9,9
2020-04-08T23:08:40.000Z,26NA20200407,-51.716,64.168,,2021.0N,2,,0.368,0.7,1014.11,1017.9,35.0,1019.0,-8.0,0.0,,371.9,,,366.1,,364.5,364.491,4,2,9,9,9
2020-04-08T23:10:13.000Z,26NA20200407,-51.716,64.168,,2021.0N,2,,0.346,0.68,1014.04,1017.9,35.0,1019.0,-8.0,0.0,,371.8,,,366.0,,364.4,364.391,4,2,9,9,9
2020-04-08T23:11:47.000Z,26NA20200407,-51.716,64.168,,2021.0N,2,,0.339,0.67,1014.31,1018.0,35.0,1019.0,-8.0,0.0,,371.6,,,365.9,,364.3,364.291,4,2,9,9,9
2020-04-08T23:13:20.000Z,26NA20200407,-51.716,64.168,,2021.0N,2,,0.338,0.65,1013.99,1018.0,35.0,1019.0,-8.0,0.0,,371.5,,,366.1,,364.5,364.491,4,2,9,9,9
2020-04-08T23:14:53.000Z,26NA20200407,-51.716,64.168,,2021.0N,2,,0.33,0.66,1014.0,1018.1,35.0,1019.0,-8.0,0.0,,371.3,,,365.7,,364.1,364.092,4,2,9,9,9
2020-04-08T23:16:26.000Z,26NA20200407,-51.716,64.168,,2021.0N,2,,0.338,0.67,1013.8,1018.0,35.0,1019.0,-8.0,0.0,,371.3,,,365.5,,364.0,363.893,4,2,9,9,9
2020-04-08T23:17:59.000Z,26NA20200407,-51.716,64.168,,2021.0N,2,,0.352,0.65,1014.25,1018.0,35.0,1019.0,-8.0,0.0,,371.2,,,366.0,,364.4,364.391,4,2,9,9,9
2020-04-08T23:19:32.000Z,26NA20200407,-51.716,64.168,,2021.0N,2,,0.373,0.68,1014.12,1017.9,35.0,1019.0,-8.0,0.0,,371.3,,,365.9,,364.3,364.292,4,2,9,9,9
2020-04-08T23:21:05.000Z,26NA20200407,-51.716,64.168,,2021.0N,2,,0.379,0.69,1014.09,1018.1,35.0,1019.0,-8.0,0.0,,371.5,,,366.1,,364.5,364.491,4,2,9,9,9
2020-04-08T23:22:38.000Z,26NA20200407,-51.716,64.168,,2021.0N,2,,0.417,0.7,1014.04,1018.1,35.0,1019.0,-8.0,0.0,,371.8,,,366.9,,365.3,365.289,4,2,9,9,9
2020-04-08T23:24:11.000Z,26NA20200407,-51.716,64.168,,2021.0N,2,,0.418,0.75,1014.03,1017.8,35.0,1019.0,-8.0,0.0,,372.2,,,366.4,,364.8,364.791,4,2,9,9,9
2020-04-08T23:25:44.000Z,26NA20200407,-51.716,64.168,,2021.0N,2,,0.384,0.71,1013.97,1018.1,35.0,1019.0,-8.0,0.0,,372.5,,,366.9,,365.3,365.288,4,2,9,9,9
2020-04-08T23:27:17.000Z,26NA20200407,-51.716,64.168,,2021.0N,2,,0.365,0.7,1013.8,1018.1,35.0,1019.0,-8.0,0.0,,372.6,,,366.8,,365.2,365.188,4,2,9,9,9
2020-04-08T23:28:50.000Z,26NA20200407,-51.716,64.168,,2021.0N,2,,0.376,0.69,1013.89,1018.1,35.0,1019.0,-8.0,0.0,,372.6,,,367.1,,365.5,365.487,4,2,9,9,9
2020-04-08T23:30:24.000Z,26NA20200407,-51.716,64.168,,2021.0N,2,,0.35,0.67,1013.85,1017.7,35.0,1019.0,-8.0,0.0,,372.5,,,366.8,,365.2,365.188,4,2,9,9,9
2020-04-08T23:31:57.000Z,26NA20200407,-51.716,64.168,,2021.0N,2,,0.328,0.67,1013.46,1017.9,35.0,1019.0,-8.0,0.0,,372.4,,,366.5,,364.9,364.889,4,2,9,9,9
2020-04-08T23:33:30.000Z,26NA20200407,-51.716,64.168,,2021.0N,2,,0.362,0.67,1013.61,1017.9,35.0,1019.0,-8.0,0.0,,372.3,,,366.8,,365.2,365.188,4,2,9,9,9
2020-04-08T23:35:03.000Z,26NA20200407,-51.716,64.168,,2021.0N,2,,0.347,0.67,1013.88,1017.8,35.0,1019.0,-8.0,0.0,,372.3,,,366.6,,365.0,364.989,4,2,9,9,9
2020-04-08T23:36:36.000Z,26NA20200407,-51.716,64.168,,2021.0N,2,,0.33,0.65,1013.73,1017.8,35.0,1019.0,-8.0,0.0,,372.3,,,366.7,,365.1,365.088,4,2,9,9,9
2020-04-08T23:38:09.000Z,26NA20200407,-51.716,64.168,,2021.0N,2,,0.34,0.65,1013.68,1017.8,35.0,1019.0,-8.0,0.0,,372.2,,,366.7,,365.1,365.088,4,2,9,9,9
2020-04-08T23:39:42.000Z,26NA20200407,-51.716,64.168,,2021.0N,2,,0.35,0.66,1013.82,1017.7,35.0,1019.0,-8.0,0.0,,372.0,,,366.5,,364.9,364.89,4,2,9,9,9
2020-04-08T23:41:15.000Z,26NA20200407,-51.716,64.168,,2021.0N,2,,0.354,0.66,1013.88,1017.7,35.0,1019.0,-8.0,0.0,,371.9,,,366.5,,364.9,364.89,4,2,9,9,9
2020-04-08T23:42:48.000Z,26NA20200407,-51.716,64.168,,2021.0N,2,,0.372,0.67,1013.88,1017.7,35.0,1019.0,-8.0,0.0,,371.9,,,366.6,,365.0,364.99,4,2,9,9,9
2020-04-08T23:44:41.000Z,26NA20200407,-51.716,64.168,,2021.0N,2,,0.371,0.68,1013.72,1017.8,35.0,1019.0,-8.0,0.0,,372.0,,,366.6,,365.0,364.989,4,2,9,9,9
2020-04-08T23:46:15.000Z,26NA20200407,-51.716,64.168,,2021.0N,2,,0.367,0.69,1013.39,1018.0,35.0,1019.0,-8.0,0.0,,372.3,,,366.7,,365.1,365.089,4,2,9,9,9
2020-04-08T23:47:48.000Z,26NA20200407,-51.716,64.168,,2021.0N,2,,0.392,0.69,1013.57,1017.9,35.0,1019.0,-8.0,0.0,,372.4,,,367.2,,365.6,365.587,4,2,9,9,9
2020-04-08T23:49:21.000Z,26NA20200407,-51.716,64.168,,2021.0N,2,,0.395,0.7,1013.62,1018.0,35.0,1019.0,-8.0,0.0,,372.3,,,367.0,,365.4,365.388,4,2,9,9,9
2020-04-08T23:50:54.000Z,26NA20200407,-51.716,64.168,,2021.0N,2,,0.37,0.69,1013.73,1017.9,35.0,1019.0,-8.0,0.0,,372.2,,,366.7,,365.1,365.089,4,2,9,9,9
2020-04-08T23:52:27.000Z,26NA20200407,-51.716,64.168,,2021.0N,2,,0.361,0.68,1013.78,1018.0,35.0,1019.0,-8.0,0.0,,371.8,,,366.2,,364.6,364.591,4,2,9,9,9
2020-04-08T23:54:00.000Z,26NA20200407,-51.716,64.168,,2021.0N,2,,0.35,0.67,1013.45,1018.0,35.0,1019.0,-8.0,0.0,,371.6,,,366.0,,364.4,364.391,4,2,9,9,9
2020-04-08T23:55:33.000Z,26NA20200407,-51.716,64.168,,2021.0N,2,,0.366,0.66,1013.47,1018.0,35.0,1019.0,-8.0,0.0,,371.3,,,366.1,,364.5,364.491,4,2,9,9,9
2020-04-08T23:57:06.000Z,26NA20200407,-51.716,64.168,,2021.0N,2,,0.343,0.68,1013.14,1018.0,35.0,1019.0,-8.0,0.0,,371.0,,,365.2,,363.6,363.595,4,2,9,9,9
2020-04-08T23:58:39.000Z,26NA20200407,-51.716,64.168,,2021.0N,2,,0.367,0.67,1013.42,1018.0,35.0,1019.0,-8.0,0.0,,370.9,,,365.6,,364.0,363.993,4,2,9,9,9
2020-04-09T00:00:12.000Z,26NA20200407,-51.716,64.168,,2021.0N,2,,0.372,0.68,1013.43,1017.9,35.0,1015.2,-8.0,0.0,,370.8,,,365.4,,363.8,363.795,4,2,9,9,9
2020-04-09T00:45:51.000Z,26NA20200407,-51.716,64.168,,2021.0N,2,,0.31,0.62,1013.82,1017.7,35.0,1015.2,-8.0,0.0,,373.7,,,368.1,,366.5,366.482,4,2,9,9,9
2020-04-09T00:47:44.000Z,26NA20200407,-51.716,64.168,,2021.0N,2,,0.319,0.62,1013.55,1017.9,35.0,1015.2,-8.0,0.0,,373.0,,,367.7,,366.1,366.083,4,2,9,9,9
2020-04-09T00:49:17.000Z,26NA20200407,-51.716,64.168,,2021.0N,2,,0.326,0.63,1013.83,1017.6,35.0,1015.2,-8.0,0.0,,372.8,,,367.4,,365.8,365.785,4,2,9,9,9
2020-04-09T00:50:50.000Z,26NA20200407,-51.716,64.168,,2021.0N,2,,0.331,0.63,1013.84,1017.5,35.0,1015.2,-8.0,0.0,,372.9,,,367.5,,365.9,365.885,4,2,9,9,9
2020-04-09T00:52:23.000Z,26NA20200407,-51.716,64.168,,2021.0N,2,,0.347,0.65,1013.75,1017.6,35.0,1015.2,-8.0,0.0,,373.2,,,367.8,,366.1,366.184,4,2,9,9,9
2020-04-09T00:53:57.000Z,26NA20200407,-51.716,64.168,,2021.0N,2,,0.348,0.64,1013.79,1017.8,35.0,1015.2,-8.0,0.0,,373.7,,,368.4,,366.8,366.781,4,2,9,9,9
2020-04-09T00:55:29.000Z,26NA20200407,-51.716,64.168,,2021.0N,2,,0.379,0.67,1013.69,1017.7,35.0,1015.2,-8.0,0.0,,373.3,,,368.1,,366.5,366.483,4,2,9,9,9
2020-04-09T00:57:02.000Z,26NA20200407,-51.716,64.168,,2021.0N,2,,0.385,0.69,1013.92,1017.6,35.0,1015.2,-8.0,0.0,,372.9,,,367.4,,365.8,365.787,4,2,9,9,9
2020-04-09T00:58:35.000Z,26NA20200407,-51.716,64.168,,2021.0N,2,,0.381,0.68,1014.06,1017.7,35.0,1015.2,-8.0,0.0,,372.0,,,366.6,,365.0,364.99,4,2,9,9,9
2020-04-09T01:00:08.000Z,26NA20200407,-51.716,64.168,,2021.0N,2,,0.377,0.68,1013.78,1017.7,35.0,1015.2,-8.0,0.0,,371.3,,,365.9,,364.3,364.293,4,2,9,9,9
2020-04-09T01:01:41.000Z,26NA20200407,-51.716,64.168,,2021.0N,2,,0.386,0.68,1013.63,1017.8,35.0,1015.2,-8.0,0.0,,370.9,,,365.6,,364.0,363.994,4,2,9,9,9
2020-04-09T01:03:14.000Z,26NA20200407,-51.716,64.168,,2021.0N,2,,0.394,0.67,1013.69,1017.7,35.0,1015.2,-8.0,0.0,,370.0,,,365.1,,363.5,363.497,4,2,9,9,9
2020-04-09T01:04:47.000Z,26NA20200407,-51.716,64.168,,2021.0N,2,,0.409,0.7,1013.6,1017.6,35.0,1015.2,-8.0,0.0,,369.4,,,364.2,,362.6,362.601,4,2,9,9,9
2020-04-09T01:06:20.000Z,26NA20200407,-51.716,64.168,,2021.0N,2,,0.4,0.71,1013.86,1017.7,35.0,1015.2,-8.0,0.0,,369.3,,,363.8,,362.2,362.203,4,2,9,9,9
2020-04-09T01:07:53.000Z,26NA20200407,-51.716,64.168,,2021.0N,2,,0.402,0.7,1014.02,1017.5,35.0,1015.2,-8.0,0.0,,369.3,,,363.9,,362.3,362.302,4,2,9,9,9
2020-04-09T01:09:27.000Z,26NA20200407,-51.716,64.168,,2021.0N,2,,0.388,0.71,1013.71,1017.5,35.0,1015.2,-8.0,0.0,,369.1,,,363.4,,361.8,361.804,4,2,9,9,9
2020-04-09T01:10:59.000Z,26NA20200407,-51.716,64.168,,2021.0N,2,,0.368,0.68,1013.75,1017.8,35.0,1015.2,-8.0,0.0,,368.4,,,363.0,,361.4,361.405,4,2,9,9,9
2020-04-09T01:12:32.000Z,26NA20200407,-51.716,64.168,,2021.0N,2,,0.359,0.67,1013.56,1017.6,35.0,1015.2,-8.0,0.0,,368.0,,,362.5,,360.9,360.907,4,2,9,9,9
2020-04-09T01:14:06.000Z,26NA20200407,-51.716,64.168,,2021.0N,2,,0.389,0.68,1013.69,1017.5,35.0,1015.2,-8.0,0.0,,367.5,,,362.3,,360.7,360.709,4,2,9,9,9
2020-04-09T01:15:39.000Z,26NA20200407,-51.716,64.168,,2021.0N,2,,0.391,0.68,1013.68,1017.5,35.0,1015.2,-8.0,0.0,,367.2,,,362.0,,360.4,360.411,4,2,9,9,9
2020-04-09T01:17:12.000Z,26NA20200407,-51.716,64.168,,2021.0N,2,,0.401,0.7,1013.42,1017.5,35.0,1015.2,-8.0,0.0,,366.9,,,361.5,,360.0,359.913,4,2,9,9,9